Showing default

ICEYE-X35, 58302

Orbit data source: Space-Track

ICEYE-X35, 58302 is a payload satellite owned by ICEYE (FI) in SSO that was launched on Sat, 11 Nov 2023 UTC via an FALCON 9 launch vehicle from the Air Force Western Test Range (AFWTR). Payload-class satellites include a variety of spacecraft equipped with specific instruments for various scientific and technological missions. These include communications satellites like Starlink; space stations such as the ISS; scientific satellites like the Hubble; Earth observation satellites from companies like Planet Labs, Umbra, and HawkEye 360; GPS; miniature CubeSats for education and research; and military/defense satellites.

Not visible in the next 10 days
Identifier
58302, 2023-174AY
Orbit
SSO
Country
Flag of FIFI / FIN
Related business
Manufacturer
ICEYE
Mission
Operational Commercial Radar Imaging
Bus & Motor
ICEYE, Unknown motor
Mass
90 kg wet, 89 kg dry
Launch date (UTC)
2023-11-11 (2 years ago)
Launch vehicle
FALCON 9
Launch site
Air Force Western Test Range (AFWTR)
Object type
Payload
Rocket body
Debris
Shape & HBR
Box + 1 Pan, 2.4 m
Radar Cross Section
0.825 m², Medium (>0.1 m² and < 1m²)

Expand to show TLE details & history
Last TLE update: 7 hours ago

TLE from 7 hours ago
0 ICEYE-X35
1 58302U 23174AY  26126.93844616  .00030754  00000-0  56696-3 0  9997
2 58302  97.3806 210.4867 0007525 340.7049  19.3915 15.49057970138958
Epoch: 2026-05-06T22:31Z
TLE epoch observation values (Epoch: 2026-05-06T22:31:21.748Z)
Latitude
-0.00009°
Longitude
7.85434°
Altitude
417.785 km
Speed
7.663 km/s
True Right ascension
14h 01m 56s
True Declination
0° 00' 00"
Sunlit
Object was in full shadow at epoch
Visualization orbit readout
Latitude
Unknown
Longitude
Unknown
Altitude
Unknown
Speed
Unknown
Apparent Right ascension
Unknown
Apparent Declination
Unknown
Sunlit
N/A
Visualization observer readout
Local Sidereal Time
13:06:31
Azimuth
Unknown
Elevation
Unknown
Doppler factor
Unknown
Orbital elements
Apogee altitude
421.52 km
Perigee altitude
411.294 km
Semi-major axis
6,794.544 km
Eccentricity
0.00075
Inclination
97.3806°
RAAN
210.4867°
Arg. of periapsis
340.7049°
True anomaly
19.42016°
Mean anomaly
19.3915°
Eccentric anomaly
19.40583°
Mean motion
3.87528 °/min
Orbital period
92.9 mins
BSTAR
0.00056696
Loading maneuver chart data...
Computing Atmospheric mass density...
Loading historical data...
Loading historical data...
Loading historical data...
Loading historical data...
Loading historical data...
Loading historical data...
Loading historical data...

Documentation

Showing up to 5 results
|